[[{"header":{"parameterUnit":"m.s-1","parameterCategory":1,"la1":30.2991,"la2":30.254,"lo1":-89.0895,"lo2":-89.0444,"dy":0.0017,"dx":0.0017,"nx":28,"ny":28,"refTime":"2024-03-28T21:00:00:Z","depth":0,"parameterNumber":2,"parameterNumberName":"U-component_of_WINDS"},"data":[0,0,0,0,0,0,0,0,0,0,0,0,0,0,0,0,0,0,0,0,0,0,0,0,0,0,0,0,0,0,0,0,0,0,0,0,0,0,0,0,0,0,0,0,0,0,0,0,0,0,0,0,0,0,0,0,0,0,-3.0067,-3.0067,0,-3.0084,-3.0084,-3.0084,-2.9953,-2.9949,-2.9945,-2.9942,-2.9961,-2.9965,-2.9969,0,0,0,0,0,0,0,0,0,0,0,0,0,-2.9922,-2.9925,-3.0067,-3.0067,-3.0067,-3.0084,-3.0084,-3.0084,-2.9953,-2.9949,-2.9944,-2.994,-2.996,-2.9964,-2.9969,0,0,0,0,0,0,0,0,0,0,0,0,0,-2.9967,-2.9926,-3.0067,-3.0004,-2.9998,-3.0084,-3.0084,-3.0084,-2.9954,-2.9949,-2.9943,-2.9938,-2.9958,-2.9964,-2.997,-3.0117,0,0,-2.9988,-2.999,0,0,0,0,0,0,0,0,-2.9964,-2.9972,-3.0013,-3.0008,-3.0002,-3.001,-3.004,-3.0095,-2.9956,-2.9971,-2.9942,-2.9935,-2.9982,-2.9986,-3.0001,-3.0118,-3.0119,-2.9988,-2.9992,-2.9995,-2.9996,0,0,0,0,0,0,0,-2.9961,-2.997,-3.0074,-3.0014,-3.0007,-2.9975,-2.9975,-3.005,-3.0008,-2.9969,-2.996,-2.9963,-2.9978,-2.9996,-3.0001,-3.0119,-2.9988,-2.9994,-2.9997,-2.9999,-3.0357,-3.0362,0,0,0,0,0,0,-2.9966,-2.9969,-3.0073,-3.0074,-2.9969,-2.9982,-2.9982,-3.0014,-3.0006,-3.0,-2.9968,-2.9957,-2.9988,-2.9994,-3.0001,-3.0172,-2.9994,-3.0,-3.0003,-3.0351,-3.0358,-3.0364,0,0,0,0,0,0,-2.9964,-2.9977,-3.0072,-3.0019,-3.0029,-2.999,-3.0027,-3.0017,-3.0034,-3.0005,-2.9997,-2.9994,-2.9984,-2.9992,-3.0089,-3.0171,-3.0003,-3.0008,-3.0344,-3.0353,-3.0361,-3.0518,0,0,0,0,0,0,-2.996,-2.9977,-3.0032,-3.0021,-3.0032,-3.0161,-3.0032,-3.0021,-3.0044,-3.003,-3.0027,-3.0022,-2.998,-3.0081,-3.0095,-3.0176,-3.0013,-3.0336,-3.0348,-3.0358,-3.0505,-3.0531,-3.0553,0,0,0,0,0,-2.9955,-3.0076,-3.0036,-3.0049,-3.0101,-3.0166,-3.0172,-3.0122,-3.0052,-3.0107,-3.0088,-3.0022,-3.016,-3.0092,-3.0106,-3.0191,-3.0331,-3.0345,-3.0358,-3.0494,-3.0526,-3.0552,0,0,0,0,0,0,-3.0099,-3.0074,-3.0029,-3.0149,-3.0161,-3.0143,-3.0212,-3.0157,-3.0188,-3.0174,-3.011,-3.0111,-3.0218,-3.0214,-3.0138,-3.0333,-3.0233,-3.025,-3.0332,-3.0362,-3.0385,-3.0385,-3.0018,0,0,0,0,0,-3.0145,-3.02,-3.0174,-3.0283,-3.0291,-3.0251,-3.0277,-3.0237,-3.0247,-3.0251,-3.0239,-3.0251,-3.0297,-3.0329,-3.0369,-3.0503,-3.0501,-3.0568,-3.0592,-3.0612,-3.0628,-3.0698,-3.0728,-3.0408,-3.0408,-3.0408,0,0,-3.024,-3.0233,-3.0272,-3.0312,-3.0316,-3.0374,-3.0256,-3.0323,-3.0365,-3.0261,-3.0352,-3.0344,-3.0352,-3.0468,-3.0519,-3.0468,-3.0716,-3.0629,-3.0645,-3.065,-3.0715,-3.0745,-3.0772,-3.0417,-3.0416,-3.0414,0,0,-3.0444,-3.0444,-3.0534,-3.054,-3.0547,-3.0519,-3.0541,-3.0532,-3.0522,-3.0612,-3.0535,-3.0584,-3.0665,-3.0674,-3.069,-3.0895,-3.0835,-3.091,-3.1036,-3.1105,-3.113,-3.1152,-3.1226,-3.1253,-3.0926,-3.0926,-3.0926,0,-3.0561,-3.0646,-3.0588,-3.066,-3.068,-3.0587,-3.0678,-3.0687,-3.0708,-3.0724,-3.0666,-3.0765,-3.0764,-3.0881,-3.0931,-3.0946,-3.0969,-3.0911,-3.1131,-3.1153,-3.1172,-3.1242,-3.127,-3.0935,-3.0934,-3.0933,-3.0932,0,-3.079,-3.085,-3.0922,-3.0943,-3.0971,-3.1053,-3.1007,-3.1043,-3.1,-3.0978,-3.107,-3.1066,-3.1104,-3.1128,-3.1088,-3.1239,-3.1208,-3.1142,-3.1041,-3.1213,-3.1277,-3.1304,-3.0948,-3.0945,-3.0942,-3.094,0,0,-3.1087,-3.1073,-3.1101,-3.1109,-3.111,-3.1155,-3.1232,-3.1268,-3.1299,-3.1316,-3.1379,-3.1449,-3.1387,-3.1405,-3.1364,-3.1425,-3.1588,-3.1351,-3.1351,-3.1396,-3.1755,-3.1805,-3.1837,-3.1548,-3.1552,-3.1556,-3.1755,0,-3.1285,-3.1416,-3.1365,-3.15,-3.1554,-3.1466,-3.1532,-3.154,-3.1522,-3.1565,-3.1544,-3.1595,-3.151,-3.152,-3.1576,-3.1557,-3.166,-3.1541,-3.1606,-3.1609,-3.1608,-3.1871,-3.1924,-3.2112,-3.1779,-3.1783,-3.1787,0,-3.1535,-3.1561,-3.1701,-3.1691,-3.1712,-3.1773,-3.1802,-3.1844,-3.1851,-3.1833,-3.1852,-3.1798,-3.1872,-3.177,-3.1872,-3.1793,-3.1816,-3.1811,-3.1817,-3.1822,-3.171,-3.1884,-3.217,-3.2199,-3.1825,-3.1822,-3.182,0,-3.1738,-3.1808,-3.1901,-3.191,-3.1901,-3.1946,-3.1944,-3.1944,-3.1969,-3.1994,-3.201,-3.2044,-3.2063,-3.209,-3.2046,-3.1976,-3.2155,-3.2049,-3.2143,-3.2144,-3.2186,-3.2184,-3.2481,-3.22,-3.2199,-3.2199,-3.2198,0,-3.1966,-3.2056,-3.1991,-3.2049,-3.2146,-3.2086,-3.2184,-3.2173,-3.2174,-3.2227,-3.2153,-3.2204,-3.2143,-3.2189,-3.2155,-3.2245,-3.2254,-3.2242,-3.2232,-3.2249,-3.2251,-3.2264,-3.2251,-3.2206,-3.2204,-3.2203,-3.2202,0,-3.221,-3.2171,-3.2266,-3.2248,-3.2246,-3.2319,-3.2303,-3.2356,-3.2331,-3.2399,-3.2412,-3.2374,-3.2424,-3.2382,-3.2431,-3.2408,-3.2528,-3.2499,-3.2526,-3.2518,-3.2614,-3.2606,-3.2931,-3.2971,-3.2663,-3.2666,-3.2669,0,-3.2359,-3.2425,-3.2414,-3.2444,-3.2447,-3.2496,-3.2521,-3.2465,-3.2493,-3.2505,-3.2556,-3.2599,-3.2631,-3.2715,-3.2692,-3.2729,-3.2701,-3.2812,-3.2706,-3.2721,-3.2703,-3.27,-3.2707,-3.2834,-3.2838,-3.2841,-3.2843,0,-3.2627,-3.2604,-3.2642,-3.2673,-3.2704,-3.2726,-3.2743,-3.2771,-3.2714,-3.275,-3.2799,-3.2824,-3.2873,-3.2917,-3.2946,-3.2944,-3.2885,-3.2877,-3.29,-3.2919,-3.2932,-3.2927,-3.2585,-3.287,-3.2867,-3.2865,-3.2864,-3.2863,-3.2828,-3.2883,-3.2884,-3.2928,-3.2934,-3.2951,-3.2999,-3.2979,-3.302,-3.3055,-3.3019,-3.308,-3.3083,-3.3115,-3.3121,-3.3167,-3.3121,-3.3155,-3.3164,-3.3174,-3.3188,-3.2924,-3.3172,-3.3171,-3.3171,-3.317,-3.3169,0,-3.3093,-3.3089,-3.313,-3.3155,-3.319,-3.3129,-3.3143,-3.3177,-3.3231,-3.3239,-3.3271,-3.3328,-3.3371,-3.335,-3.3387,-3.3428,-3.3402,-3.344,-3.3437,-3.3437,-3.3227,-3.3203,-3.346,-3.346,-3.346,-3.346,-3.346,-3.346,-3.3235,-3.3325,-3.3301,-3.3393,-3.3387,-3.3445,-3.3459,-3.3474,-3.348,-3.3546,-3.3581,-3.3567,-3.3563,-3.3599,-3.3635,-3.3628,-3.3645,-3.3693,-3.3677,-3.3481,-3.3452,-3.3425,-3.3402,-3.3697,-3.3698,-3.3883,-3.3885,-3.3886]},{"header":{"parameterUnit":"m.s-1","parameterCategory":1,"la1":30.2991,"la2":30.254,"lo1":-89.0895,"lo2":-89.0444,"dy":0.0017,"dx":0.0017,"nx":28,"ny":28,"refTime":"2024-03-28T21:00:00:Z","depth":0,"parameterNumber":3,"parameterNumberName":"V-component_of_WINDS"},"data":[0,0,0,0,0,0,0,0,0,0,0,0,0,0,0,0,0,0,0,0,0,0,0,0,0,0,0,0,0,0,0,0,0,0,0,0,0,0,0,0,0,0,0,0,0,0,0,0,0,0,0,0,0,0,0,0,0,0,-2.2184,-2.2184,0,-2.2239,-2.224,-2.224,-2.2233,-2.2232,-2.2232,-2.2231,-2.2283,-2.2285,-2.2287,0,0,0,0,0,0,0,0,0,0,0,0,0,-2.2066,-2.2069,-2.2184,-2.2184,-2.2185,-2.2239,-2.224,-2.2241,-2.2234,-2.2232,-2.2231,-2.223,-2.2282,-2.2285,-2.2287,0,0,0,0,0,0,0,0,0,0,0,0,0,-2.2119,-2.2069,-2.2184,-2.2188,-2.2189,-2.2239,-2.224,-2.2241,-2.2234,-2.2232,-2.2231,-2.223,-2.2281,-2.2285,-2.2288,-2.2335,0,0,-2.2298,-2.2299,0,0,0,0,0,0,0,0,-2.2116,-2.2123,-2.2187,-2.2188,-2.2189,-2.2228,-2.2218,-2.2272,-2.2234,-2.2217,-2.2231,-2.2229,-2.2265,-2.227,-2.2283,-2.2338,-2.234,-2.2298,-2.23,-2.2302,-2.2303,0,0,0,0,0,0,0,-2.2112,-2.2121,-2.2205,-2.2188,-2.2189,-2.2186,-2.2192,-2.2228,-2.2248,-2.2218,-2.2218,-2.2225,-2.2266,-2.228,-2.2284,-2.2341,-2.2298,-2.2301,-2.2303,-2.2305,-2.2435,-2.2436,0,0,0,0,0,0,-2.2108,-2.2118,-2.2204,-2.2207,-2.2149,-2.2189,-2.2196,-2.2217,-2.2247,-2.2251,-2.2226,-2.2224,-2.2275,-2.228,-2.2286,-2.2342,-2.2302,-2.2305,-2.2307,-2.2433,-2.2435,-2.2437,0,0,0,0,0,0,-2.2106,-2.2116,-2.2201,-2.2162,-2.2173,-2.2192,-2.2216,-2.2219,-2.2233,-2.2253,-2.2256,-2.2237,-2.2274,-2.2281,-2.2323,-2.2344,-2.2306,-2.2309,-2.2431,-2.2434,-2.2436,-2.2456,0,0,0,0,0,0,-2.2103,-2.2115,-2.2135,-2.2163,-2.2175,-2.2239,-2.2218,-2.2221,-2.2239,-2.2238,-2.2265,-2.2268,-2.2274,-2.2318,-2.2326,-2.2348,-2.2312,-2.243,-2.2432,-2.2435,-2.2454,-2.2459,-2.2463,0,0,0,0,0,-2.2098,-2.2137,-2.2136,-2.2146,-2.22,-2.224,-2.2247,-2.2255,-2.2241,-2.226,-2.2273,-2.2267,-2.2341,-2.2322,-2.2332,-2.2355,-2.2428,-2.2432,-2.2435,-2.2451,-2.2458,-2.2463,0,0,0,0,0,0,-2.211,-2.2141,-2.214,-2.219,-2.2212,-2.2239,-2.2263,-2.2261,-2.2287,-2.2284,-2.2291,-2.2297,-2.2339,-2.2351,-2.233,-2.2401,-2.2382,-2.2388,-2.2392,-2.2398,-2.2403,-2.2398,-2.2315,0,0,0,0,0,-2.2118,-2.215,-2.2175,-2.2216,-2.2228,-2.2244,-2.2261,-2.2265,-2.2288,-2.2298,-2.2314,-2.2335,-2.2363,-2.2381,-2.2408,-2.2455,-2.246,-2.2476,-2.248,-2.2484,-2.2488,-2.2513,-2.252,-2.2447,-2.2447,-2.2447,0,0,-2.2135,-2.2157,-2.2176,-2.2219,-2.2237,-2.2268,-2.2252,-2.2285,-2.2307,-2.2302,-2.2343,-2.2355,-2.2379,-2.2423,-2.2444,-2.2435,-2.251,-2.2488,-2.2491,-2.2493,-2.2517,-2.2524,-2.253,-2.245,-2.2449,-2.2449,0,0,-2.2183,-2.2203,-2.2239,-2.2258,-2.2286,-2.2296,-2.2305,-2.2332,-2.234,-2.2381,-2.2377,-2.2403,-2.2452,-2.2469,-2.2484,-2.2537,-2.2532,-2.2545,-2.257,-2.2593,-2.2599,-2.2604,-2.2622,-2.2628,-2.255,-2.255,-2.255,0,-2.22,-2.2248,-2.2257,-2.2291,-2.231,-2.2308,-2.2343,-2.2361,-2.2395,-2.2407,-2.2397,-2.2457,-2.2474,-2.2521,-2.2534,-2.2547,-2.2555,-2.2542,-2.2598,-2.2603,-2.2608,-2.2625,-2.2632,-2.2551,-2.2551,-2.2551,-2.2551,0,-2.2268,-2.2301,-2.2327,-2.2362,-2.2383,-2.2417,-2.243,-2.245,-2.2452,-2.2462,-2.2503,-2.2522,-2.2553,-2.2564,-2.2566,-2.2612,-2.2605,-2.2597,-2.2578,-2.2616,-2.2632,-2.2639,-2.2553,-2.2552,-2.2552,-2.2552,0,0,-2.2324,-2.2364,-2.2373,-2.2388,-2.2419,-2.2444,-2.2477,-2.2509,-2.2525,-2.2549,-2.2576,-2.2617,-2.2609,-2.2626,-2.2629,-2.265,-2.2689,-2.2638,-2.2639,-2.2646,-2.2739,-2.2745,-2.2753,-2.2686,-2.2688,-2.2689,-2.2737,0,-2.2373,-2.2435,-2.2444,-2.2497,-2.2526,-2.2525,-2.2554,-2.2575,-2.2585,-2.261,-2.2621,-2.265,-2.2638,-2.2648,-2.2668,-2.268,-2.2708,-2.2677,-2.271,-2.2711,-2.2703,-2.2761,-2.2768,-2.2812,-2.2743,-2.2744,-2.2745,0,-2.244,-2.2467,-2.2523,-2.2549,-2.2562,-2.2588,-2.2617,-2.2642,-2.2664,-2.267,-2.2689,-2.269,-2.2723,-2.2703,-2.2747,-2.2726,-2.274,-2.2748,-2.2749,-2.2752,-2.273,-2.2764,-2.2826,-2.2833,-2.2755,-2.2754,-2.2754,0,-2.2473,-2.2524,-2.2564,-2.2577,-2.2609,-2.2627,-2.264,-2.2662,-2.268,-2.2705,-2.2716,-2.2743,-2.2758,-2.2778,-2.2785,-2.2771,-2.2829,-2.281,-2.2833,-2.2833,-2.2845,-2.2844,-2.2909,-2.2855,-2.2855,-2.2855,-2.2855,0,-2.2527,-2.2561,-2.2579,-2.2604,-2.2642,-2.2651,-2.2687,-2.27,-2.2719,-2.2745,-2.2745,-2.2768,-2.2777,-2.2802,-2.2807,-2.2842,-2.2849,-2.2853,-2.2854,-2.2853,-2.2852,-2.2862,-2.2858,-2.2857,-2.2857,-2.2856,-2.2856,0,-2.2571,-2.2585,-2.2628,-2.2655,-2.2662,-2.2688,-2.271,-2.2733,-2.2743,-2.2775,-2.2783,-2.2799,-2.2828,-2.2837,-2.2872,-2.2875,-2.2916,-2.2915,-2.2909,-2.2908,-2.2931,-2.2928,-2.3003,-2.3013,-2.2954,-2.2955,-2.2955,0,-2.2604,-2.2631,-2.266,-2.2678,-2.2693,-2.2722,-2.274,-2.2749,-2.2768,-2.2796,-2.2815,-2.2844,-2.2867,-2.2913,-2.2926,-2.2952,-2.2951,-2.2975,-2.2955,-2.2952,-2.295,-2.2948,-2.295,-2.2979,-2.298,-2.298,-2.2981,0,-2.2661,-2.2666,-2.2694,-2.2723,-2.2746,-2.2769,-2.2791,-2.2805,-2.2818,-2.2838,-2.2869,-2.2887,-2.2923,-2.2951,-2.2977,-2.2989,-2.2986,-2.2987,-2.2994,-2.2992,-2.2987,-2.2989,-2.2918,-2.2985,-2.2985,-2.2984,-2.2984,-2.2984,-2.27,-2.2723,-2.2747,-2.2777,-2.2795,-2.2816,-2.2839,-2.2852,-2.2878,-2.2909,-2.2912,-2.2944,-2.2965,-2.3001,-2.3014,-2.3038,-2.3031,-2.304,-2.3043,-2.3045,-2.3046,-2.2984,-2.3043,-2.3043,-2.3043,-2.3042,-2.3042,0,-2.2755,-2.2771,-2.2799,-2.2831,-2.2854,-2.2851,-2.2876,-2.2895,-2.2923,-2.2944,-2.2967,-2.3001,-2.3028,-2.3044,-2.307,-2.3086,-2.3086,-2.3093,-2.3091,-2.3094,-2.3051,-2.3043,-2.3093,-2.3093,-2.3093,-2.3093,-2.3093,-2.3093,-2.2787,-2.2826,-2.2834,-2.2881,-2.2896,-2.2929,-2.2943,-2.2961,-2.2978,-2.3016,-2.3039,-2.3049,-2.3067,-2.3095,-2.3119,-2.3123,-2.3132,-2.314,-2.3142,-2.3102,-2.3097,-2.3092,-2.3084,-2.3142,-2.3142,-2.3183,-2.3183,-2.3184]}]]